Weather History for KTYS - April, 2012

Change the Weather History Date:

Monday, April 23, 2012

  Actual Average Record
Temperature  
Mean Temperature 50 °F 61 °F  
Max Temperature 59 °F 72 °F 89 °F (1965)
Min Temperature 40 °F 50 °F 26 °F (1986)
Degree Days  
Heating Degree Days 15 5  
Month to date heating degree days 129 187  
Since 1 July heating degree days 2771 3544  
Cooling Degree Days 0 1  
Month to date cooling degree days 22 21  
Year to date cooling degree days 60 26  
Growing Degree Days 1 (Base 50)    
Moisture  
Dew Point 26 °F    
Average Humidity 41    
Maximum Humidity 60    
Minimum Humidity 21    
Precipitation  
Precipitation 0.00 in 0.14 in 1.63 in (1977)
Month to date precipitation 2.98 3.04  
Year to date precipitation 18.77 15.96  
Snow  
Snow 0.00 in 0.00 in - ()
Month to date snowfall 0.0 0.5  
Since 1 July snowfall 0.1 6.5  
Snow Depth 0.00 in    
Sea Level Pressure  
Sea Level Pressure 29.80 in    
Wind  
Wind Speed 11 mph (NW)    
Max Wind Speed 21 mph    
Max Gust Speed 31 mph    
Visibility 10 miles    
Events      
T = Trace of Precipitation, MM = Missing Value Source: NWS Daily Summary

Daily Weather History Graph

Daily Weather History Graph

Search for Another Location

Airport or City:

Trip Planner

Search our weather history database for the weather conditions in past years. The results will help you decide how hot, cold, wet, or windy it might be!

Date:

Astronomy

Apr. 23, 2012 Rise Set
Actual Time 6:52 AM EDT 8:16 PM EDT
Civil Twilight 6:25 AM EDT 8:43 PM EDT
Nautical Twilight 5:53 AM EDT 9:15 PM EDT
Astronomical Twilight 5:19 AM EDT 9:49 PM EDT
Moon 8:07 AM EDT (4/23) 10:40 PM EDT (4/23)
Length of Visible Light 14h 17m
Length of Day
13h 24m
Waxing Crescent, 5% of the Moon is Illuminated
Apr 23
Waxing Crescent
Apr 29
First Quarter
May 5
Full
May 12
Last Quarter
May 20
New

Hourly Weather History & Observations

Time (EDT) Temp. Windchill Dew Point Humidity Pressure Visibility Wind Dir Wind Speed Gust Speed Precip Events Conditions
12:53 AM 46.0 °F 41.9 °F 33.1 °F 61% 29.81 in 10.0 mi NNW 8.1 mph - N/A   Overcast
1:53 AM 46.0 °F 44.8 °F 33.1 °F 61% 29.78 in 10.0 mi Variable 3.5 mph - N/A   Overcast
2:53 AM 46.0 °F 40.6 °F 32.0 °F 58% 29.77 in 10.0 mi NNW 11.5 mph - N/A   Overcast
3:53 AM 45.0 °F 39.3 °F 30.0 °F 56% 29.77 in 10.0 mi NNW 11.5 mph - N/A   Mostly Cloudy
4:53 AM 44.1 °F 39.0 °F 28.0 °F 53% 29.78 in 10.0 mi North 9.2 mph - N/A   Scattered Clouds
5:53 AM 44.1 °F 39.5 °F 28.0 °F 53% 29.78 in 10.0 mi NNW 8.1 mph - N/A   Overcast
6:53 AM 43.0 °F 37.2 °F 28.9 °F 58% 29.79 in 10.0 mi NNW 10.4 mph - N/A   Overcast
7:53 AM 44.1 °F 39.5 °F 30.0 °F 58% 29.80 in 10.0 mi NW 8.1 mph - N/A   Overcast
8:53 AM 44.1 °F 40.1 °F 30.9 °F 60% 29.81 in 10.0 mi WNW 6.9 mph - N/A   Overcast
9:53 AM 46.0 °F 41.0 °F 28.9 °F 51% 29.81 in 10.0 mi WNW 10.4 mph - N/A   Overcast
10:53 AM 48.0 °F - 27.0 °F 44% 29.82 in 10.0 mi WNW 12.7 mph - N/A   Overcast
11:53 AM 51.1 °F - 28.0 °F 41% 29.82 in 10.0 mi West 8.1 mph 18.4 mph N/A   Mostly Cloudy
12:53 PM 51.1 °F - 24.1 °F 35% 29.81 in 10.0 mi WNW 11.5 mph 20.7 mph N/A   Mostly Cloudy
1:53 PM 54.0 °F - 23.0 °F 30% 29.80 in 10.0 mi NNW 17.3 mph 24.2 mph N/A   Scattered Clouds
2:53 PM 55.0 °F - 21.9 °F 28% 29.78 in 10.0 mi NNW 13.8 mph 20.7 mph N/A   Scattered Clouds
3:53 PM 57.9 °F - 21.0 °F 24% 29.78 in 10.0 mi NNW 15.0 mph 21.9 mph N/A   Scattered Clouds
4:53 PM 57.9 °F - 18.0 °F 21% 29.78 in 10.0 mi WNW 12.7 mph 24.2 mph N/A   Scattered Clouds
5:53 PM 57.9 °F - 18.0 °F 21% 29.79 in 10.0 mi NW 18.4 mph 27.6 mph N/A   Scattered Clouds
6:53 PM 55.9 °F - 19.0 °F 24% 29.80 in 10.0 mi NW 10.4 mph 19.6 mph N/A   Scattered Clouds
7:53 PM 54.0 °F - 21.0 °F 28% 29.81 in 10.0 mi WNW 12.7 mph 17.3 mph N/A   Mostly Cloudy
8:53 PM 52.0 °F - 21.9 °F 31% 29.83 in 10.0 mi West 8.1 mph - N/A   Partly Cloudy
9:53 PM 50.0 °F - 25.0 °F 38% 29.84 in 10.0 mi WSW 5.8 mph - N/A   Clear
10:53 PM 48.0 °F - 24.1 °F 39% 29.85 in 10.0 mi WSW 8.1 mph - N/A   Clear
11:53 PM 46.0 °F 41.0 °F 26.1 °F 46% 29.84 in 10.0 mi WSW 10.4 mph - N/A   Clear